STARLINK-36458, 67343

Orbit data source: Space-Track

STARLINK-36458, 67343 is a payload satellite owned by SpaceX/Seattle (US) in LEO that was launched on Fri, 09 Jan 2026 UTC via an FALCON 9 launch vehicle from the Air Force Eastern Test Range (AFETR). Payload-class satellites include a variety of spacecraft equipped with specific instruments for various scientific and technological missions. These include communications satellites like Starlink; space stations such as the ISS; scientific satellites like the Hubble; Earth observation satellites from companies like Planet Labs, Umbra, and HawkEye 360; GPS; miniature CubeSats for education and research; and military/defense satellites.

Loading next visibility...
Identifier
67343, 2026-003K
Orbit
LEO
Country
Flag of USUS
Related business
Manufacturer
SpaceX/Seattle
Mission
Operational Commercial Communications
Bus & Motor
STARLINK V2MO, Unknown motor
Mass
575 kg wet, ~530 kg dry
Launch date (UTC)
2026-01-09 (5 months ago)
Launch vehicle
FALCON 9
Launch site
Air Force Eastern Test Range (AFETR)
Object type
Payload
Rocket body
Debris
Shape & HBR
Box + 2 Pan, 17.7 m
Radar Cross Section
36.964 m², Large (>1 m²)

Expand to show TLE details & history
Last TLE update: 1 day ago

TLE from 1 day ago
0 STARLINK-36458
1 67343U 26003K   26170.61488293  .00019148  00000-0  70314-3 0  9992
2 67343  43.0058  11.3105 0001684 271.3275  88.7384 15.27598440 24416
Epoch: 2026-06-19T14:45Z
TLE epoch observation values (Epoch: 2026-06-19T14:45:25.885Z)
Latitude
0.00001°
Longitude
-117.88867°
Altitude
482.745 km
Speed
7.626 km/s
True Right ascension
00h 45m 14s
True Declination
0° 00' 00"
Sunlit
Object was in daylight at epoch
Visualization orbit readout
Latitude
Unknown
Longitude
Unknown
Altitude
Unknown
Speed
Unknown
Apparent Right ascension
Unknown
Apparent Declination
Unknown
Sunlit
N/A
Visualization observer readout
Local Sidereal Time
10:19:36
Azimuth
Unknown
Elevation
Unknown
Doppler factor
Unknown
Orbital elements
Apogee altitude
486.094 km
Perigee altitude
483.782 km
Semi-major axis
6,863.075 km
Eccentricity
0.00017
Inclination
43.0058°
RAAN
11.3105°
Arg. of periapsis
271.3275°
True anomaly
88.75769°
Mean anomaly
88.7384°
Eccentric anomaly
88.74805°
Mean motion
3.81738 °/min
Orbital period
94.31 mins
BSTAR
0.00070314
Loading maneuver chart data...
Computing Atmospheric mass density...
Loading historical data...
Loading historical data...
Loading historical data...
Loading historical data...
Loading historical data...
Loading historical data...
Loading historical data...

Documentation

Showing up to 5 results
|